sat.trackr.live / text

‹ back to catalog

STARLINK-37006

NORAD 68187 · 2026-050W

PAYLOAD ACTIVE UNKNOWN

§ Identity

Operator
Country
US
Launch date
2026-03-14
Launch site
AFETR
Launch vehicle
Mass (kg)
RCS (m²)

Purposes: comms

External: N2YO · Heavens-Above · Gunter

§ Orbital elements

Epoch: 2026-05-24T18:05:29.196096Z

Period
93.85 min
Inclination
53.1598°
Eccentricity
0.0000973
Mean motion
15.34398319 rev/d
Perigee alt
462.0 km
Apogee alt
463.4 km
Semi-major
6,840.8 km
B*
9.7472e-4
RAAN
273.1005°
Arg perigee
87.0854°
Mean anomaly
273.0260°
Rev number
1,233

§ Raw data

STARLINK-370061 68187U 26050W   26144.75381014  .00032698  00000+0  97472-3 0  99982 68187  53.1598 273.1005 0000973  87.0854 273.0260 15.34398319 12337

JSON: /api/v1/satellites/68187 · /tle

For live sub-satellite position, see the globe view (requires WebGL).

§ Visibility from observer

Set your observer location to see the next 7 days of passes ≥ 10°. The values pass through the URL so the page stays shareable.

No JS? Fill the form by hand. The geolocation button needs JavaScript.